Litchfield, MN

7:16 PM CST on December 05, 2019 (GMT -0600)
Litchfield Municipal

Weather History for KLJF - September, 2019

Change the Weather History Date:

Tuesday, September 17, 2019

  Actual Average Record
Temperature  
Mean Temperature 82 °F -  
Max Temperature 91 °F 72 °F 93 °F (1955)
Min Temperature 73 °F 47 °F 34 °F (1959)
Cooling Degree Days 17    
Growing Degree Days 32 (Base 50)    
Moisture  
Dew Point 73 °F    
Average Humidity 81    
Maximum Humidity 100    
Minimum Humidity 52    
Precipitation  
Precipitation 0.00 in - - ()
Sea Level Pressure  
Sea Level Pressure 29.90 in    
Wind  
Wind Speed 6 mph ()    
Max Wind Speed 13 mph    
Max Gust Speed 23 mph    
Visibility 9.8 miles    
Events Rain , Thunderstorm    
Averages and records for this station are not official NWS values.
T = Trace of Precipitation, MM = Missing Value Source: Averaged Metar Reports

Daily Weather History Graph

Daily Weather History Graph

Search for Another Location

Airport or City:

Astronomy

Sep. 17, 2019 Rise Set
Actual Time 6:58 AM CDT 7:25 PM CDT
Civil Twilight 6:29 AM CDT 7:54 PM CDT
Nautical Twilight 5:54 AM CDT 8:29 PM CDT
Astronomical Twilight 5:18 AM CDT 9:05 PM CDT
Moon 9:20 PM CDT (9/17) 10:11 AM CDT (9/17)
Length of Visible Light 13h 25m
Length of Day
12h 26m
Waning Gibbous, 89% of the Moon is Illuminated
Sep 17
Waning Gibbous
Sep 21
Last Quarter
Sep 28
New
Oct 5
First Quarter
Oct 13
Full

Hourly Weather History & Observations

Time (CDT) Temp. Heat Index Dew Point Humidity Pressure Visibility Wind Dir Wind Speed Gust Speed Precip Events Conditions
12:15 AM 77.0 °F - 75.2 °F 94% 29.95 in 10.0 mi SSE 4.6 mph - N/A   Clear
12:16 AM 77.0 °F - 75.2 °F 94% 29.95 in 10.0 mi SSE 5.8 mph - N/A   Clear
12:35 AM 77.0 °F - 75.2 °F 94% 29.95 in 10.0 mi SSE 5.8 mph - N/A   Clear
12:36 AM 77.0 °F - 75.2 °F 94% 29.95 in 10.0 mi SSE 5.8 mph - N/A   Clear
1:35 AM 77.0 °F - 73.4 °F 89% 29.95 in 10.0 mi SSE 6.9 mph - N/A   Clear
1:55 AM 77.0 °F - 73.4 °F 89% 29.95 in 10.0 mi SSE 5.8 mph - N/A   Clear
1:56 AM 77.0 °F - 73.4 °F 89% 29.95 in 10.0 mi SSE 5.8 mph - N/A   Clear
2:15 AM 75.2 °F - 73.4 °F 94% 29.95 in 10.0 mi SSE 5.8 mph - N/A   Clear
2:19 AM 75.2 °F - 73.4 °F 94% 29.95 in 10.0 mi SSE 6.9 mph - N/A   Clear
2:37 AM 75.2 °F - 73.4 °F 94% 29.95 in 10.0 mi SSE 5.8 mph - N/A   Clear
3:15 AM 75.2 °F - 73.4 °F 94% 29.94 in 10.0 mi SSE 5.8 mph - N/A   Clear
3:16 AM 75.2 °F - 73.4 °F 94% 29.94 in 10.0 mi SSE 5.8 mph - N/A   Clear
3:36 AM 75.2 °F - 73.4 °F 94% 29.95 in 10.0 mi SSE 6.9 mph - N/A   Clear
3:59 AM 75.2 °F - 73.4 °F 94% 29.94 in 10.0 mi SE 5.8 mph - N/A   Clear
4:17 AM 75.2 °F - 73.4 °F 94% 29.94 in 10.0 mi SSE 6.9 mph - N/A Thunderstorm Clear
4:36 AM 75.2 °F - 73.4 °F 94% 29.94 in 10.0 mi SSE 5.8 mph - N/A   Clear
4:55 AM 75.2 °F - 73.4 °F 94% 29.95 in 10.0 mi SSE 8.1 mph - N/A   Clear
4:56 AM 75.2 °F - 73.4 °F 94% 29.94 in 10.0 mi SSE 6.9 mph - N/A   Clear
5:15 AM 75.2 °F - 73.4 °F 94% 29.94 in 10.0 mi SSE 5.8 mph - N/A Thunderstorm Scattered Clouds
5:19 AM 75.2 °F - 73.4 °F 94% 29.94 in 10.0 mi SSE 6.9 mph - N/A Thunderstorm Scattered Clouds
5:38 AM 75.2 °F - 73.4 °F 94% 29.94 in 10.0 mi Calm Calm - N/A Thunderstorm Clear
5:55 AM 73.4 °F - 73.4 °F 100% 29.94 in 10.0 mi Calm Calm - N/A Thunderstorm Clear
6:15 AM 73.4 °F - 73.4 °F 100% 29.95 in 10.0 mi Calm Calm - N/A Thunderstorm Clear
6:16 AM 73.4 °F - 73.4 °F 100% 29.95 in 10.0 mi Calm Calm - N/A Thunderstorm Clear
6:35 AM 73.4 °F - 73.4 °F 100% 29.95 in 10.0 mi SE 3.5 mph - N/A Thunderstorm Scattered Clouds
6:36 AM 73.4 °F - 73.4 °F 100% 29.95 in 10.0 mi SE 4.6 mph - N/A Thunderstorm Scattered Clouds
6:59 AM 73.4 °F - 71.6 °F 94% 29.95 in 10.0 mi Calm Calm - N/A Thunderstorm Mostly Cloudy
7:17 AM 73.4 °F - 71.6 °F 94% 29.95 in 10.0 mi Calm Calm - N/A Thunderstorm Thunderstorm
7:36 AM 73.4 °F - 71.6 °F 94% 29.96 in 10.0 mi Calm Calm - N/A Thunderstorm Overcast
7:55 AM 73.4 °F - 71.6 °F 94% 29.95 in 4.0 mi East 5.8 mph - N/A Rain Rain
7:56 AM 73.4 °F - 71.6 °F 94% 29.95 in 4.0 mi East 5.8 mph - N/A Rain Light Rain
8:15 AM 73.4 °F - 71.6 °F 94% 29.95 in 5.0 mi ESE 5.8 mph - N/A Rain Rain
8:37 AM 73.4 °F - 71.6 °F 94% 29.94 in 10.0 mi ESE 8.1 mph - N/A   Mostly Cloudy
8:56 AM 73.4 °F - 73.4 °F 100% 29.93 in 10.0 mi SE 6.9 mph - N/A   Scattered Clouds
9:15 AM 73.4 °F - 73.4 °F 100% 29.93 in 10.0 mi SE 6.9 mph - N/A   Scattered Clouds
9:16 AM 73.4 °F - 73.4 °F 100% 29.93 in 10.0 mi SE 8.1 mph - N/A   Scattered Clouds
9:35 AM 73.4 °F - 73.4 °F 100% 29.93 in 10.0 mi SE 9.2 mph - N/A Rain Light Rain
9:39 AM 73.4 °F - 73.4 °F 100% 29.92 in 10.0 mi SE 10.4 mph - N/A   Scattered Clouds
10:15 AM 75.2 °F - 73.4 °F 94% 29.92 in 10.0 mi SE 8.1 mph - N/A   Clear
10:35 AM 75.2 °F - 73.4 °F 94% 29.91 in 10.0 mi SSE 8.1 mph - N/A   Clear
10:36 AM 75.2 °F - 73.4 °F 94% 29.91 in 10.0 mi SSE 8.1 mph - N/A   Clear
10:55 AM 77.0 °F - 75.2 °F 94% 29.91 in 10.0 mi SSE 8.1 mph - N/A   Clear
11:19 AM 78.8 °F - 75.2 °F 89% 29.91 in 10.0 mi SSE 10.4 mph 17.3 mph N/A   Clear
11:36 AM 80.6 °F 86.2 °F 75.2 °F 84% 29.90 in 10.0 mi SSE 9.2 mph 18.4 mph N/A   Clear
11:56 AM 82.4 °F 89.5 °F 75.2 °F 79% 29.90 in 10.0 mi SSE 9.2 mph 19.6 mph N/A   Clear
12:15 PM 84.2 °F 92.3 °F 75.2 °F 74% 29.89 in 10.0 mi SSE 11.5 mph 20.7 mph N/A   Clear
12:16 PM 84.2 °F 92.3 °F 75.2 °F 74% 29.89 in 10.0 mi SSE 8.1 mph 19.6 mph N/A   Clear
12:35 PM 84.2 °F 92.3 °F 75.2 °F 74% 29.89 in 10.0 mi SSE 10.4 mph 21.9 mph N/A   Clear
12:40 PM 84.2 °F 92.3 °F 75.2 °F 74% 29.89 in 10.0 mi SSE 11.5 mph 20.7 mph N/A   Clear
12:57 PM 86.0 °F 95.1 °F 75.2 °F 70% 29.89 in 10.0 mi SSE 9.2 mph 18.4 mph N/A   Clear
1:15 PM 86.0 °F 95.1 °F 75.2 °F 70% 29.88 in 10.0 mi SSE 10.4 mph 19.6 mph N/A   Clear
1:35 PM 87.8 °F 97.6 °F 75.2 °F 66% 29.88 in 10.0 mi SSE 12.7 mph 20.7 mph N/A   Clear
1:55 PM 87.8 °F 95.6 °F 73.4 °F 62% 29.87 in 10.0 mi SSE 6.9 mph 23.0 mph N/A   Clear
2:18 PM 87.8 °F 95.6 °F 73.4 °F 62% 29.86 in 10.0 mi SSE 12.7 mph 21.9 mph N/A   Clear
2:36 PM 89.6 °F 98.2 °F 73.4 °F 59% 29.86 in 10.0 mi SSE 8.1 mph 17.3 mph N/A   Clear
2:56 PM 89.6 °F 98.2 °F 73.4 °F 59% 29.85 in 10.0 mi SSE 11.5 mph 18.4 mph N/A   Clear
3:15 PM 89.6 °F 96.2 °F 71.6 °F 55% 29.85 in 10.0 mi SSE 11.5 mph 21.9 mph N/A   Clear
3:35 PM 91.4 °F 100.1 °F 73.4 °F 55% 29.85 in 10.0 mi SSE 8.1 mph - N/A   Clear
3:57 PM 91.4 °F 98.4 °F 71.6 °F 52% 29.84 in 10.0 mi SSE 6.9 mph - N/A   Clear
4:15 PM 91.4 °F 98.4 °F 71.6 °F 52% 29.84 in 10.0 mi SSE 8.1 mph - N/A   Clear
4:35 PM 91.4 °F 98.4 °F 71.6 °F 52% 29.83 in 10.0 mi SSE 6.9 mph 17.3 mph N/A   Clear
4:36 PM 91.4 °F 98.4 °F 71.6 °F 52% 29.84 in 10.0 mi SSE 8.1 mph 17.3 mph N/A   Clear
4:55 PM 91.4 °F 98.4 °F 71.6 °F 52% 29.83 in 10.0 mi SSE 9.2 mph 16.1 mph N/A   Clear
5:19 PM 89.6 °F 96.2 °F 71.6 °F 55% 29.83 in 10.0 mi SSE 6.9 mph - N/A   Clear
5:36 PM 89.6 °F 96.2 °F 71.6 °F 55% 29.83 in 10.0 mi SSE 8.1 mph - N/A   Clear
5:56 PM 89.6 °F 96.2 °F 71.6 °F 55% 29.83 in 10.0 mi SSE 8.1 mph - N/A   Clear
6:15 PM 87.8 °F 93.8 °F 71.6 °F 58% 29.83 in 10.0 mi SSE 8.1 mph - N/A   Clear
6:16 PM 87.8 °F 93.8 °F 71.6 °F 58% 29.83 in 10.0 mi SSE 6.9 mph - N/A   Clear
6:35 PM 86.0 °F 91.8 °F 71.6 °F 62% 29.83 in 10.0 mi SSE 8.1 mph - N/A   Clear
6:58 PM 84.2 °F 89.6 °F 71.6 °F 66% 29.83 in 10.0 mi SSE 6.9 mph - N/A   Clear
7:15 PM 82.4 °F 87.2 °F 71.6 °F 70% 29.83 in 10.0 mi SSE 8.1 mph - N/A   Clear
7:35 PM 82.4 °F 87.2 °F 71.6 °F 70% 29.85 in 10.0 mi SSE 6.9 mph - N/A   Clear
7:36 PM 82.4 °F 87.2 °F 71.6 °F 70% 29.85 in 10.0 mi SSE 5.8 mph - N/A   Clear
7:55 PM 82.4 °F 87.2 °F 71.6 °F 70% 29.85 in 10.0 mi SSE 8.1 mph - N/A   Clear
7:56 PM 82.4 °F 87.2 °F 71.6 °F 70% 29.85 in 10.0 mi SE 8.1 mph - N/A   Clear
8:36 PM 80.6 °F 84.6 °F 71.6 °F 74% 29.86 in 10.0 mi SSE 8.1 mph 17.3 mph N/A   Clear
8:56 PM 80.6 °F 84.6 °F 71.6 °F 74% 29.86 in 10.0 mi SSE 9.2 mph - N/A   Clear
9:15 PM 80.6 °F 84.6 °F 71.6 °F 74% 29.86 in 10.0 mi SSE 6.9 mph - N/A   Clear
9:16 PM 80.6 °F 84.6 °F 71.6 °F 74% 29.86 in 10.0 mi SE 8.1 mph - N/A   Clear
9:35 PM 78.8 °F - 71.6 °F 78% 29.86 in 10.0 mi SSE 6.9 mph - N/A   Clear
9:57 PM 78.8 °F - 71.6 °F 78% 29.87 in 10.0 mi SSE 9.2 mph 16.1 mph N/A   Clear
10:15 PM 78.8 °F - 71.6 °F 78% 29.87 in 10.0 mi SSE 8.1 mph 18.4 mph N/A   Clear
10:35 PM 78.8 °F - 71.6 °F 78% 29.87 in 10.0 mi SSE 11.5 mph 19.6 mph N/A   Clear
10:55 PM 78.8 °F - 71.6 °F 78% 29.87 in 10.0 mi SSE 9.2 mph 16.1 mph N/A   Clear
11:19 PM 78.8 °F - 71.6 °F 78% 29.87 in 10.0 mi SSE 10.4 mph 17.3 mph N/A   Clear
11:36 PM 78.8 °F - 73.4 °F 83% 29.86 in 10.0 mi SSE 9.2 mph 17.3 mph N/A   Clear
11:56 PM 77.0 °F - 73.4 °F 89% 29.86 in 10.0 mi SSE 11.5 mph 16.1 mph N/A   Clear